Location: Sternwarte-Kraichtal
(49.1689°N, 8.6996°E)
Time: 20:14:00
(UTC+02:00)

Vanguard 2 Rocket - Pass Details

Date: 28 May 2022
Orbit: 553 x 3323 km, 32.9° (Epoch: 02 July)

Event Time Altitude Azimuth Distance (km) Brightness Sun altitude
Rises 16:29:33 0° 253° (WSW) 7,265 12.3 44.0°
Reaches altitude 10° 16:35:06 10° 248° (WSW) 6,090 12.2 43.1°
Maximum altitude 16:51:09 40° 188° (S) 3,250 10.4 40.6°
Drops below altitude 10° 17:01:42 10° 123° (ESE) 4,063 10.0 38.9°
Sets 17:04:35 0° 116° (ESE) 4,722 10.2 38.5°
